N4XWC Weather Reports


time (UTC)temp
F
wind
direction
speed
knots
gust
knots
rain 1hr
in
rain 24hr
in
rain mn
in
humidity
%
barometer
mb
20260502231008 64 6 5.2 7.8 0.00 0.00 0.00 41 1015.4
20260502230512 64 335 1.7 3.5 0.00 0.00 0.00 41 1015.4
20260502230215 64 0 5.2 6.1 0.00 0.00 0.00 42 1015.4
20260502230012 64 342 4.3 4.3 0.00 0.00 0.00 42 1015.4
20260502225511 64 357 0.9 2.6 0.00 0.00 0.00 42 1015.5
20260502225214 64 24 1.7 1.7 0.00 0.00 0.00 41 1015.5
20260502225013 64 7 0.9 4.3 0.00 0.00 0.00 41 1015.5
20260502224512 64 352 4.3 5.2 0.00 0.00 0.00 40 1015.5
20260502224215 64 304 4.3 7.8 0.00 0.00 0.00 40 1015.4
20260502224012 64 0 4.3 5.2 0.00 0.00 0.00 40 1015.4
20260502223512 64 325 3.5 7.8 0.00 0.00 0.00 41 1015.4
20260502223214 64 0 3.5 3.5 0.00 0.00 0.00 41 1015.4
20260502223012 64 359 0.9 7.8 0.00 0.00 0.00 40 1015.4
20260502222513 64 357 0.9 4.3 0.00 0.00 0.00 39 1015.4
20260502222215 64 0 7.0 8.7 0.00 0.00 0.00 38 1015.4
20260502222012 64 352 8.7 8.7 0.00 0.00 0.00 38 1015.4
20260502221511 64 1 2.6 10.4 0.00 0.00 0.00 40 1015.4
20260502221214 64 311 3.5 4.3 0.00 0.00 0.00 40 1015.3
20260502221011 64 58 0.0 0.9 0.00 0.00 0.00 40 1015.3
20260502220512 64 37 6.1 6.1 0.00 0.00 0.00 40 1015.3
20260502220214 64 1 6.1 7.0 0.00 0.00 0.00 41 1015.3
20260502220011 65 52 2.6 2.6 0.00 0.00 0.00 40 1015.3
20260502215300 65 1 5.2 6.1 0.00 0.00 0.00 39 1015.2
20260502215215 65 31 2.6 2.6 0.00 0.00 0.00 39 1015.2
20260502214800 66 233 0.9 1.7 0.00 0.00 0.00 40 1015.2
20260502214301 66 356 1.7 5.2 0.00 0.00 0.00 38 1015.2
20260502214214 66 356 1.7 5.2 0.00 0.00 0.00 38 1015.2
20260502213800 66 3 2.6 8.7 0.00 0.00 0.00 39 1015.2
20260502213301 66 0 5.2 7.8 0.00 0.00 0.00 37 1015.2
20260502213215 66 0 5.2 7.8 0.00 0.00 0.00 37 1015.2
20260502212800 66 330 3.5 5.2 0.00 0.00 0.00 40 1015.2
20260502212304 66 59 2.6 4.3 0.00 0.00 0.00 41 1015.2
20260502212214 66 59 2.6 4.3 0.00 0.00 0.00 41 1015.2
20260502211801 66 292 5.2 8.7 0.00 0.00 0.00 40 1015.2
20260502211300 66 27 1.7 7.8 0.00 0.00 0.00 39 1015.3
20260502211214 66 27 1.7 7.8 0.00 0.00 0.00 39 1015.3
20260502210800 66 311 4.3 7.8 0.00 0.00 0.00 40 1015.3
20260502210301 66 23 2.6 6.1 0.00 0.00 0.00 38 1015.3
20260502210214 66 23 2.6 6.1 0.00 0.00 0.00 38 1015.3
20260502205800 66 350 7.8 8.7 0.00 0.00 0.00 38 1015.2
20260502205300 66 1 4.3 8.7 0.00 0.00 0.00 38 1015.2
20260502205214 66 1 4.3 8.7 0.00 0.00 0.00 38 1015.2
20260502204802 66 343 7.8 8.7 0.00 0.00 0.00 41 1015.2
20260502204301 66 313 2.6 7.0 0.00 0.00 0.00 40 1015.4
20260502204213 66 313 2.6 7.0 0.00 0.00 0.00 40 1015.4
20260502203800 66 0 7.0 7.8 0.00 0.00 0.00 39 1015.4
20260502203301 66 325 7.8 8.7 0.00 0.00 0.00 40 1015.4
20260502203216 66 325 7.8 8.7 0.00 0.00 0.00 40 1015.4
20260502202801 66 17 3.5 10.4 0.00 0.00 0.00 40 1015.3
20260502202300 66 68 0.0 6.1 0.00 0.00 0.00 40 1015.3
20260502202215 66 68 0.0 6.1 0.00 0.00 0.00 40 1015.3
20260502201801 66 3 7.8 8.7 0.00 0.00 0.00 40 1015.3
20260502201301 66 322 5.2 8.7 0.00 0.00 0.00 40 1015.4
20260502201214 66 322 5.2 8.7 0.00 0.00 0.00 40 1015.4
20260502200802 66 71 4.3 15.6 0.00 0.00 0.00 38 1015.4
20260502200300 66 311 0.9 13.0 0.00 0.00 0.00 41 1015.4
20260502200214 66 311 0.9 13.0 0.00 0.00 0.00 41 1015.4
20260502195800 67 8 8.7 13.9 0.00 0.00 0.00 38 1015.5
20260502195301 67 28 1.7 9.6 0.00 0.00 0.00 38 1015.5
20260502195215 67 28 1.7 9.6 0.00 0.00 0.00 38 1015.5
20260502194802 66 0 7.8 8.7 0.00 0.00 0.00 39 1015.5
20260502194301 66 304 1.7 7.8 0.00 0.00 0.00 39 1015.6
20260502194215 66 304 1.7 7.8 0.00 0.00 0.00 39 1015.6
20260502193801 66 4 3.5 6.1 0.00 0.00 0.00 38 1015.6
20260502193301 66 32 4.3 7.8 0.00 0.00 0.00 40 1015.6
20260502193216 66 32 4.3 7.8 0.00 0.00 0.00 40 1015.6
20260502192802 66 359 8.7 8.7 0.00 0.00 0.00 38 1015.5
20260502192304 66 332 13.9 13.9 0.00 0.00 0.00 39 1015.5
20260502192215 66 332 13.9 13.9 0.00 0.00 0.00 39 1015.5
20260502191801 66 316 3.5 8.7 0.00 0.00 0.00 37 1015.5
20260502191300 66 31 7.8 13.0 0.00 0.00 0.00 36 1015.6
20260502191214 66 31 7.8 13.0 0.00 0.00 0.00 36 1015.6
20260502190801 66 56 1.7 8.7 0.00 0.00 0.00 37 1015.6
20260502190300 66 73 4.3 6.1 0.00 0.00 0.00 36 1015.6
20260502190215 66 73 4.3 6.1 0.00 0.00 0.00 36 1015.6
20260502185801 66 330 0.0 8.7 0.00 0.00 0.00 36 1015.7
20260502185301 66 18 3.5 8.7 0.00 0.00 0.00 36 1015.7
20260502185214 66 18 3.5 8.7 0.00 0.00 0.00 36 1015.7
20260502184800 66 328 7.8 7.8 0.00 0.00 0.00 38 1015.7
20260502184302 66 4 5.2 9.6 0.00 0.00 0.00 36 1016.0
20260502184214 66 10 0.9 0.9 0.00 0.00 0.00 36 1016.0
20260502183801 66 44 2.6 8.7 0.00 0.00 0.00 35 1016.0
20260502183302 66 25 5.2 9.6 0.00 0.00 0.00 34 1016.0
20260502183213 66 25 5.2 9.6 0.00 0.00 0.00 34 1016.0
20260502182800 66 344 4.3 6.1 0.00 0.00 0.00 35 1015.9
20260502182300 66 323 5.2 8.7 0.00 0.00 0.00 38 1015.9
20260502182215 66 323 5.2 8.7 0.00 0.00 0.00 38 1015.9
20260502181800 66 0 5.2 12.2 0.00 0.00 0.00 34 1015.9
20260502181301 66 38 2.6 3.5 0.00 0.00 0.00 36 1015.9
20260502181214 66 38 2.6 3.5 0.00 0.00 0.00 36 1015.9
20260502180800 65 312 6.1 8.7 0.00 0.00 0.00 40 1015.9
20260502180301 65 93 0.0 6.1 0.00 0.00 0.00 39 1015.9
20260502180214 65 93 0.0 6.1 0.00 0.00 0.00 39 1015.9
20260502170301 63 308 4.3 8.7 0.00 0.00 0.00 46 1016.5
20260502170214 63 308 4.3 8.7 0.00 0.00 0.00 46 1016.5
20260502164301 62 350 8.7 8.7 0.00 0.00 0.00 45 1016.7
20260502164214 62 350 8.7 8.7 0.00 0.00 0.00 45 1016.7
20260502163801 62 48 0.9 7.0 0.00 0.00 0.00 47 1016.7
20260502163300 62 325 7.8 9.6 0.00 0.00 0.00 50 1016.7
20260502163214 62 325 7.8 9.6 0.00 0.00 0.00 50 1016.7
20260502162801 61 80 0.0 4.3 0.00 0.00 0.00 53 1016.8
20260502162301 61 347 7.8 7.8 0.00 0.00 0.00 51 1016.8
20260502162214 61 347 7.8 7.8 0.00 0.00 0.00 51 1016.8
20260502161800 60 336 3.5 8.7 0.00 0.00 0.00 51 1016.8
20260502161301 60 16 0.9 7.0 0.00 0.00 0.00 52 1016.9
20260502161215 60 16 0.9 7.0 0.00 0.00 0.00 52 1016.9
20260502160800 59 112 3.5 7.0 0.00 0.00 0.00 53 1016.9
20260502160302 59 6 6.1 8.7 0.00 0.00 0.00 52 1016.9
20260502160213 59 18 7.8 8.7 0.00 0.00 0.00 52 1016.9
20260502152305 56 8 9.6 9.6 0.00 0.00 0.00 61 1016.6
20260502152221 56 337 6.1 6.1 0.00 0.00 0.00 61 1016.6
20260502151801 56 48 2.6 8.7 0.00 0.00 0.00 61 1016.6
20260502151301 56 27 7.8 7.8 0.00 0.00 0.00 60 1016.5
20260502151215 56 27 7.8 7.8 0.00 0.00 0.00 60 1016.5
20260502150801 56 69 5.2 9.6 0.00 0.00 0.00 63 1016.5
20260502150302 56 24 2.6 4.3 0.00 0.00 0.00 65 1016.5
20260502150214 56 316 3.5 8.7 0.00 0.00 0.00 66 1016.5
20260502130301 51 6 1.7 2.6 0.00 0.00 0.00 74 1015.2
20260502130217 51 342 1.7 6.1 0.00 0.00 0.00 74 1015.2
20260502123540 52 17 1.7 6.1 0.00 0.00 0.00 69 1015.0
20260502123215 52 24 2.6 7.8 0.00 0.00 0.00 68 1015.0
20260502123041 52 343 2.6 7.8 0.00 0.00 0.00 68 1015.0
20260502122540 52 359 2.6 5.2 0.00 0.00 0.00 68 1014.9
20260502122213 52 357 3.5 8.7 0.00 0.00 0.00 68 1014.9
20260502122041 52 40 2.6 5.2 0.00 0.00 0.00 68 1014.9
20260502121540 52 1 0.9 5.2 0.00 0.00 0.00 68 1014.9
20260502121215 52 13 2.6 6.1 0.00 0.00 0.00 68 1014.7
20260502121041 52 357 3.5 10.4 0.00 0.00 0.00 67 1014.7
20260502120542 52 24 1.7 3.5 0.00 0.00 0.00 66 1014.7
20260502120214 52 8 0.9 4.3 0.00 0.00 0.00 67 1014.7
20260502115540 52 30 0.9 1.7 0.00 0.00 0.00 66 1014.8
20260502115215 52 40 1.7 3.5 0.00 0.00 0.00 66 1014.8
20260502115040 52 8 1.7 3.5 0.00 0.00 0.00 66 1014.8
20260502114541 52 18 3.5 5.2 0.00 0.00 0.00 65 1014.8
20260502114213 52 13 6.1 8.7 0.00 0.00 0.00 65 1014.8
20260502114041 52 42 3.5 5.2 0.00 0.00 0.00 65 1014.8
20260502113541 52 7 5.2 5.2 0.00 0.00 0.00 65 1014.8
20260502113215 52 28 2.6 5.2 0.00 0.00 0.00 65 1014.8
20260502113040 52 21 2.6 4.3 0.00 0.00 0.00 65 1014.8
20260502112541 52 32 1.7 4.3 0.00 0.00 0.00 66 1014.4
20260502112213 52 357 0.0 4.3 0.00 0.00 0.00 66 1014.4
20260502112041 52 78 0.9 6.1 0.00 0.00 0.00 66 1014.4
20260502111540 52 342 4.3 6.1 0.00 0.00 0.00 66 1014.4
20260502111215 52 100 0.9 5.2 0.00 0.00 0.00 66 1014.0
20260502111040 52 14 2.6 6.1 0.00 0.00 0.00 66 1014.0
20260502110542 52 357 0.9 2.6 0.00 0.00 0.00 66 1014.0
20260502110214 52 3 2.6 5.2 0.00 0.00 0.00 66 1014.0
20260502110041 52 357 4.3 4.3 0.00 0.00 0.00 65 1014.0
20260502105541 52 1 0.0 0.9 0.00 0.00 0.00 64 1013.8
20260502105213 52 0 3.5 3.5 0.00 0.00 0.00 64 1013.8
20260502105041 52 80 3.5 3.5 0.00 0.00 0.00 64 1013.8
20260502104542 52 1 2.6 2.6 0.00 0.00 0.00 64 1013.8
20260502104214 52 45 2.6 2.6 0.00 0.00 0.00 64 1013.9
20260502104041 52 23 2.6 3.5 0.00 0.00 0.00 63 1013.9
20260502103541 53 99 0.0 0.0 0.00 0.00 0.00 63 1013.9
20260502103213 53 7 4.3 5.2 0.00 0.00 0.00 63 1013.9
20260502103041 53 24 1.7 4.3 0.00 0.00 0.00 64 1013.9
20260502102541 53 30 1.7 4.3 0.00 0.00 0.00 63 1014.3
20260502102213 53 7 4.3 4.3 0.00 0.00 0.00 64 1014.3
20260502102041 53 0 0.0 1.7 0.00 0.00 0.00 64 1014.3
20260502101540 53 7 0.0 0.9 0.00 0.00 0.00 63 1014.3
20260502101215 53 34 0.0 1.7 0.00 0.00 0.00 63 1014.1
20260502101040 53 21 1.7 3.5 0.00 0.00 0.00 63 1014.1
20260502100541 53 17 3.5 4.3 0.00 0.00 0.00 62 1014.1
20260502100216 53 54 4.3 5.2 0.00 0.00 0.00 62 1014.1
20260502091359 53 47 1.7 5.2 0.00 0.00 0.00 62 1014.1
20260502091213 53 47 1.7 5.2 0.00 0.00 0.00 62 1014.1
20260502091042 53 1 1.7 1.7 0.00 0.00 0.00 61 1014.1
20260502090540 53 18 7.8 7.8 0.00 0.00 0.00 62 1014.1
20260502090246 54 332 2.6 5.2 0.00 0.00 0.00 62 1014.1
20260502090214 54 332 2.6 5.2 0.00 0.00 0.00 62 1014.1
20260502071216 55 38 4.3 8.7 0.00 0.00 0.00 62 1014.2
20260502071041 55 352 1.7 4.3 0.00 0.00 0.00 62 1014.2
20260502070540 55 17 3.5 6.1 0.00 0.00 0.00 63 1014.2
20260502070214 55 59 4.3 8.7 0.00 0.00 0.00 64 1014.2
20260502070042 55 21 0.9 1.7 0.00 0.00 0.00 64 1014.2
20260502065541 55 28 4.3 4.3 0.00 0.00 0.00 62 1014.1
20260502065215 56 340 0.9 2.6 0.00 0.00 0.00 61 1014.1
20260502065041 56 61 2.6 5.2 0.00 0.00 0.00 61 1014.1
20260502064541 56 16 0.9 3.5 0.00 0.00 0.00 62 1014.1
20260502064247 56 1 3.5 7.0 0.00 0.00 0.00 61 1014.3
20260502064214 56 1 3.5 7.0 0.00 0.00 0.00 61 1014.3
20260502064042 56 1 7.0 7.8 0.00 0.00 0.00 62 1014.3
20260502063541 56 4 7.8 7.8 0.00 0.00 0.00 63 1014.3
20260502063215 56 8 3.5 4.3 0.00 0.00 0.00 63 1014.3
20260502063040 56 3 1.7 8.7 0.00 0.00 0.00 63 1014.3
20260502062541 56 10 2.6 6.1 0.00 0.00 0.00 64 1014.3
20260502062214 56 359 6.1 6.1 0.00 0.00 0.00 65 1014.3
20260502062042 56 16 0.9 5.2 0.00 0.00 0.00 66 1014.3
20260502061541 56 23 4.3 5.2 0.00 0.00 0.00 68 1014.3
20260502061215 56 25 2.6 6.1 0.00 0.00 0.00 69 1014.4
20260502061041 56 14 2.6 6.1 0.00 0.00 0.00 69 1014.4
20260502060540 56 4 2.6 3.5 0.00 0.00 0.00 70 1014.4
20260502060213 56 1 1.7 4.3 0.00 0.00 0.00 71 1014.4
20260502060042 56 0 0.0 4.3 0.00 0.00 0.00 71 1014.4
20260502055541 56 17 0.9 5.2 0.00 0.00 0.00 74 1014.1
20260502055214 56 17 3.5 4.3 0.00 0.00 0.00 75 1014.1
20260502055040 56 37 0.0 7.8 0.00 0.00 0.00 75 1014.1
20260502054541 56 52 4.3 6.1 0.00 0.00 0.00 77 1014.1
20260502054213 56 1 2.6 5.2 0.00 0.00 0.00 79 1014.0
20260502054042 56 4 4.3 8.7 0.00 0.00 0.00 79 1014.0
20260502053542 56 4 3.5 7.8 0.00 0.00 0.00 80 1014.0
20260502053213 56 13 6.1 6.1 0.00 0.00 0.00 81 1014.0
20260502053041 56 0 1.7 7.0 0.00 0.00 0.00 82 1014.0
20260502052542 56 1 2.6 7.8 0.00 0.00 0.00 82 1013.9
20260502052215 57 6 0.9 2.6 0.00 0.00 0.00 82 1013.9
20260502052040 57 52 3.5 7.8 0.00 0.00 0.00 82 1013.9
20260502051540 57 18 4.3 5.2 0.00 0.00 0.00 82 1013.9
20260502051214 57 6 0.9 3.5 0.00 0.00 0.00 82 1013.9
20260502051041 57 354 4.3 8.7 0.00 0.00 0.00 82 1013.9
20260502050542 57 357 4.3 4.3 0.00 0.00 0.00 82 1013.9
20260502050215 57 8 1.7 6.1 0.00 0.00 0.00 82 1013.9
20260502050040 57 13 2.6 8.7 0.00 0.00 0.00 82 1013.9
20260502045541 57 8 4.3 8.7 0.00 0.00 0.00 83 1013.8
20260502045213 57 35 4.3 4.3 0.00 0.00 0.00 83 1013.8
20260502045040 57 8 5.2 7.8 0.00 0.00 0.00 83 1013.8
20260502044541 57 359 4.3 4.3 0.00 0.00 0.00 83 1013.8
20260502044215 57 32 3.5 7.8 0.00 0.00 0.00 83 1013.6
20260502044040 57 1 3.5 7.8 0.00 0.00 0.00 83 1013.6
20260502043541 57 0 3.5 7.8 0.00 0.00 0.00 83 1013.6
20260502043214 57 335 1.7 3.5 0.00 0.00 0.00 82 1013.6
20260502043042 57 27 3.5 3.5 0.00 0.00 0.00 82 1013.6
20260502042541 57 0 5.2 8.7 0.00 0.00 0.00 82 1013.6
20260502042214 57 357 5.2 5.2 0.00 0.00 0.00 82 1013.6
20260502042040 57 20 6.1 8.7 0.00 0.00 0.00 82 1013.6
20260502041540 57 357 4.3 6.1 0.00 0.00 0.00 82 1013.6
20260502041214 57 325 3.5 7.0 0.00 0.00 0.00 82 1013.8
20260502041040 57 0 0.9 1.7 0.00 0.00 0.00 82 1013.8
20260502040541 57 316 2.6 2.6 0.00 0.00 0.00 82 1013.8
20260502040214 57 343 2.6 3.5 0.00 0.00 0.00 82 1013.8
20260502040042 57 356 3.5 3.5 0.00 0.00 0.00 82 1013.8
20260502035858 58 336 2.6 2.6 0.00 0.00 0.00 80 1013.7
20260502035541 58 16 2.6 2.6 0.00 0.00 0.00 81 1013.7
20260502035214 58 336 2.6 2.6 0.00 0.00 0.00 80 1013.7
20260502035041 58 24 2.6 4.3 0.00 0.00 0.00 80 1013.7
20260502034541 58 344 5.2 6.1 0.00 0.00 0.00 80 1013.7
20260502034215 58 40 2.6 3.5 0.00 0.00 0.00 80 1014.1
20260502034040 58 0 0.9 2.6 0.00 0.00 0.00 79 1014.1
20260502033542 58 14 1.7 3.5 0.00 0.00 0.00 79 1014.1
20260502033216 57 357 1.7 3.5 0.00 0.00 0.00 79 1014.1
20260502033042 57 340 5.2 5.2 0.00 0.00 0.00 80 1014.1
20260502032541 58 24 2.6 2.6 0.00 0.00 0.00 81 1014.1
20260502032214 58 1 2.6 4.3 0.00 0.00 0.00 81 1014.1
20260502032040 58 152 2.6 2.6 0.00 0.00 0.00 81 1014.1
20260502031542 58 21 4.3 5.2 0.00 0.00 0.00 80 1014.1
20260502031216 58 344 3.5 5.2 0.00 0.00 0.00 80 1014.3
20260502031040 58 0 2.6 2.6 0.00 0.00 0.00 80 1014.3
20260502030541 58 356 1.7 3.5 0.00 0.00 0.00 79 1014.3
20260502030214 58 3 2.6 4.3 0.00 0.00 0.00 79 1014.3
20260502030041 58 0 2.6 5.2 0.00 0.00 0.00 78 1014.3
20260502025541 58 353 2.6 4.3 0.00 0.00 0.00 78 1014.6
20260502025215 58 322 2.6 6.1 0.00 0.00 0.00 77 1014.6
20260502025040 58 0 2.6 5.2 0.00 0.00 0.00 77 1014.6
20260502024540 58 14 1.7 4.3 0.00 0.00 0.00 77 1014.6
20260502024214 58 0 2.6 2.6 0.00 0.00 0.00 76 1014.7
20260502024040 58 0 3.5 4.3 0.00 0.00 0.00 76 1014.7
20260502023541 58 350 4.3 4.3 0.00 0.00 0.00 76 1014.7
20260502023215 58 357 0.9 2.6 0.00 0.00 0.00 76 1014.7
20260502023041 58 349 1.7 2.6 0.00 0.00 0.00 76 1014.7
20260502022540 58 333 0.0 2.6 0.00 0.00 0.00 76 1014.7
20260502022214 58 333 2.6 2.6 0.00 0.00 0.00 76 1014.7
20260502022041 58 344 0.9 2.6 0.00 0.00 0.00 76 1014.7
20260502021541 58 352 1.7 1.7 0.00 0.00 0.00 77 1014.7
20260502021215 58 339 1.7 1.7 0.00 0.00 0.00 76 1014.7
20260502021041 58 335 0.9 0.9 0.00 0.00 0.00 76 1014.7
20260502020540 58 333 0.9 2.6 0.00 0.00 0.00 76 1014.7
20260502020214 58 352 0.9 2.6 0.00 0.00 0.00 76 1014.7
20260502020042 58 349 1.7 1.7 0.00 0.00 0.00 77 1014.7
20260502015542 58 344 0.0 0.9 0.00 0.00 0.00 78 1014.3
20260502015249 58 352 0.0 0.0 0.00 0.00 0.00 78 1014.3
20260502015215 58 352 0.0 0.0 0.00 0.00 0.00 78 1014.3
20260502015043 58 352 0.0 0.0 0.00 0.00 0.00 77 1014.3
20260502014541 58 352 0.0 0.9 0.00 0.00 0.00 77 1014.3
20260502014213 58 352 0.9 1.7 0.00 0.00 0.00 77 1014.3
20260502014042 58 346 0.9 1.7 0.00 0.00 0.00 77 1014.3
20260502013540 58 347 0.9 1.7 0.00 0.00 0.00 77 1014.3
20260502013215 58 352 1.7 2.6 0.00 0.00 0.00 77 1014.3
20260502013041 58 353 1.7 3.5 0.00 0.00 0.00 77 1014.3
20260502012540 58 354 2.6 2.6 0.00 0.00 0.00 78 1014.3
20260502012213 58 0 2.6 3.5 0.00 0.00 0.00 78 1014.3
20260502012042 58 359 2.6 2.6 0.00 0.00 0.00 77 1014.3
20260502011541 58 333 1.7 1.7 0.00 0.00 0.00 76 1014.3
20260502011219 59 347 1.7 2.6 0.00 0.00 0.00 76 1014.2
20260502011040 59 357 1.7 2.6 0.00 0.00 0.00 77 1014.2
20260502010540 59 0 2.6 2.6 0.00 0.00 0.00 77 1014.2
20260502010214 59 347 1.7 2.6 0.00 0.00 0.00 76 1014.2
20260502010041 59 342 1.7 2.6 0.00 0.00 0.00 76 1014.2
20260502005541 59 0 1.7 1.7 0.00 0.00 0.00 74 1013.9
20260502005215 59 0 1.7 2.6 0.00 0.00 0.00 74 1013.9
20260502005041 59 342 2.6 2.6 0.00 0.00 0.00 74 1013.9
20260502004540 59 354 1.7 1.7 0.00 0.00 0.00 75 1013.9
20260502004214 59 0 0.9 1.7 0.00 0.00 0.00 75 1013.7
20260502004042 59 0 0.9 1.7 0.00 0.00 0.00 75 1013.7
20260502003541 59 353 0.0 1.7 0.00 0.00 0.00 75 1013.7
20260502003219 59 0 0.9 1.7 0.00 0.00 0.00 75 1013.7
20260502003041 59 0 0.9 1.7 0.00 0.00 0.00 75 1013.7
20260502002541 59 0 1.7 1.7 0.00 0.00 0.00 73 1013.7
20260502002214 59 0 1.7 1.7 0.00 0.00 0.00 73 1013.7
20260502002042 59 0 0.9 3.5 0.00 0.00 0.00 73 1013.7
20260502001541 59 357 1.7 1.7 0.00 0.00 0.00 73 1013.7
20260502001249 59 357 0.9 1.7 0.00 0.00 0.00 72 1013.6
20260502001215 59 357 0.9 1.7 0.00 0.00 0.00 72 1013.6
20260502001041 59 359 2.6 2.6 0.00 0.00 0.00 71 1013.6
20260502000540 59 357 1.7 2.6 0.00 0.00 0.00 71 1013.6
20260502000214 60 357 2.6 2.6 0.00 0.00 0.00 71 1013.6
20260502000043 60 1 0.9 2.6 0.00 0.00 0.00 71 1013.6
20260501235541 60 359 1.7 2.6 0.00 0.00 0.00 72 1013.3
20260501235256 60 10 1.7 2.6 0.00 0.00 0.00 73 1013.3
20260501235214 60 10 1.7 2.6 0.00 0.00 0.00 73 1013.3
20260501235041 60 1 1.7 1.7 0.00 0.00 0.00 73 1013.3
20260501234540 60 4 0.9 1.7 0.00 0.00 0.00 74 1013.3
20260501234214 60 347 2.6 2.6 0.00 0.00 0.00 74 1013.5
20260501234042 60 11 2.6 2.6 0.00 0.00 0.00 74 1013.5
20260501233541 60 0 3.5 3.5 0.00 0.00 0.00 73 1013.5
20260501233214 60 356 0.9 2.6 0.00 0.00 0.00 72 1013.5
20260501233040 60 0 0.9 2.6 0.00 0.00 0.00 72 1013.5
20260501232541 60 0 0.9 1.7 0.00 0.00 0.00 72 1013.6
20260501232216 60 1 0.9 2.6 0.00 0.00 0.00 71 1013.6
20260501232040 60 3 2.6 2.6 0.00 0.00 0.00 71 1013.6
20260501231540 60 0 2.6 2.6 0.00 0.00 0.00 71 1013.6
20260501231213 60 8 0.9 2.6 0.00 0.00 0.00 71 1013.5
20260501231040 60 24 1.7 2.6 0.00 0.00 0.00 72 1013.5